Time,TemperatureF,DewpointF,PressureIn,WindDirection,WindDirectionDegrees,WindSpeedMPH,WindSpeedGustMPH,Humidity,HourlyPrecipIn,Conditions,Clouds,dailyrainin,SoftwareType,DateUTC
2013-01-29 00:05:00,45.9,43.1,30.27,WSW,238,0.0,0.0,90,0.00,,,0.00,Wunderground v.1.15,2013-01-29 05:05:00,
2013-01-29 00:15:00,45.7,42.9,30.27,WSW,238,0.0,0.0,90,0.00,,,0.00,Wunderground v.1.15,2013-01-29 05:15:00,
2013-01-29 00:20:00,45.5,42.7,30.27,WSW,238,0.0,0.0,90,0.00,,,0.00,Wunderground v.1.15,2013-01-29 05:20:00,
2013-01-29 00:25:00,45.4,42.6,30.27,WSW,238,0.0,0.0,90,0.00,,,0.00,Wunderground v.1.15,2013-01-29 05:25:00,
2013-01-29 00:30:00,45.3,42.5,30.27,WSW,238,0.0,0.0,90,0.00,,,0.00,Wunderground v.1.15,2013-01-29 05:30:00,
2013-01-29 00:35:00,45.2,42.4,30.27,WSW,238,0.0,0.0,90,0.00,,,0.00,Wunderground v.1.15,2013-01-29 05:35:00,
2013-01-29 00:40:00,45.2,42.4,30.27,WSW,238,0.0,0.0,90,0.00,,,0.00,Wunderground v.1.15,2013-01-29 05:40:00,
2013-01-29 00:45:00,45.1,42.6,30.27,WSW,238,0.0,0.0,91,0.00,,,0.00,Wunderground v.1.15,2013-01-29 05:45:00,
2013-01-29 00:50:00,45.0,42.2,30.27,WSW,238,0.0,0.0,90,0.00,,,0.00,Wunderground v.1.15,2013-01-29 05:50:00,
2013-01-29 00:55:00,44.9,42.1,30.26,WSW,238,0.0,0.0,90,0.00,,,0.00,Wunderground v.1.15,2013-01-29 05:55:00,
2013-01-29 01:00:00,44.9,42.1,30.26,WSW,238,0.0,0.0,90,0.00,,,0.00,Wunderground v.1.15,2013-01-29 06:00:00,
2013-01-29 01:05:00,44.8,42.3,30.26,WSW,238,0.0,0.0,91,0.00,,,0.00,Wunderground v.1.15,2013-01-29 06:05:00,
2013-01-29 01:15:00,44.6,42.1,30.26,WSW,238,0.0,0.0,91,0.00,,,0.00,Wunderground v.1.15,2013-01-29 06:15:00,
2013-01-29 01:20:00,44.5,42.0,30.26,WSW,238,0.0,0.0,91,0.00,,,0.00,Wunderground v.1.15,2013-01-29 06:20:00,
2013-01-29 01:25:00,44.5,42.0,30.26,WSW,238,0.0,0.0,91,0.00,,,0.00,Wunderground v.1.15,2013-01-29 06:25:00,
2013-01-29 01:30:00,44.4,41.9,30.26,WSW,238,0.0,0.0,91,0.00,,,0.00,Wunderground v.1.15,2013-01-29 06:30:00,
2013-01-29 01:35:00,44.3,41.8,30.25,WSW,238,0.0,0.0,91,0.00,,,0.00,Wunderground v.1.15,2013-01-29 06:35:00,
2013-01-29 01:45:00,44.2,41.7,30.25,WSW,238,0.0,0.0,91,0.00,,,0.00,Wunderground v.1.15,2013-01-29 06:45:00,
2013-01-29 01:50:00,44.2,41.7,30.25,WSW,238,0.0,0.0,91,0.00,,,0.00,Wunderground v.1.15,2013-01-29 06:50:00,
2013-01-29 01:55:00,44.1,41.6,30.25,WSW,238,0.0,0.0,91,0.00,,,0.00,Wunderground v.1.15,2013-01-29 06:55:00,
2013-01-29 02:00:00,44.1,41.6,30.25,WSW,238,0.0,0.0,91,0.00,,,0.00,Wunderground v.1.15,2013-01-29 07:00:00,
2013-01-29 02:05:00,44.1,41.6,30.25,WSW,238,0.0,0.0,91,0.00,,,0.00,Wunderground v.1.15,2013-01-29 07:05:00,
2013-01-29 02:15:00,44.0,41.5,30.25,WSW,238,0.0,0.0,91,0.00,,,0.00,Wunderground v.1.15,2013-01-29 07:15:00,
2013-01-29 02:20:00,44.0,41.8,30.24,WSW,238,0.0,0.0,92,0.00,,,0.00,Wunderground v.1.15,2013-01-29 07:20:00,
2013-01-29 02:25:00,44.0,41.8,30.24,WSW,238,0.0,0.0,92,0.00,,,0.00,Wunderground v.1.15,2013-01-29 07:25:00,
2013-01-29 02:30:00,44.0,41.8,30.24,WSW,238,0.0,0.0,92,0.00,,,0.00,Wunderground v.1.15,2013-01-29 07:30:00,
2013-01-29 02:35:00,44.0,41.8,30.24,WSW,238,0.0,0.0,92,0.00,,,0.00,Wunderground v.1.15,2013-01-29 07:35:00,
2013-01-29 02:40:00,44.0,41.8,30.25,WSW,238,0.0,0.0,92,0.00,,,0.00,Wunderground v.1.15,2013-01-29 07:40:00,
2013-01-29 02:50:00,44.1,41.9,30.25,WSW,238,0.0,0.0,92,0.00,,,0.00,Wunderground v.1.15,2013-01-29 07:50:00,
2013-01-29 02:55:00,44.1,41.9,30.24,WSW,238,0.0,0.0,92,0.00,,,0.00,Wunderground v.1.15,2013-01-29 07:55:00,
2013-01-29 03:00:00,44.1,41.9,30.24,WSW,238,0.0,0.0,92,0.00,,,0.00,Wunderground v.1.15,2013-01-29 08:00:00,
2013-01-29 03:05:00,44.2,42.0,30.24,WSW,238,0.0,0.0,92,0.00,,,0.00,Wunderground v.1.15,2013-01-29 08:05:00,
2013-01-29 03:15:00,44.5,42.6,30.24,WSW,238,0.0,0.0,93,0.00,,,0.00,Wunderground v.1.15,2013-01-29 08:15:00,
2013-01-29 03:25:00,44.6,42.7,30.24,WSW,238,0.0,0.0,93,0.00,,,0.00,Wunderground v.1.15,2013-01-29 08:25:00,
2013-01-29 03:30:00,44.7,42.8,30.24,WSW,238,0.0,0.0,93,0.00,,,0.00,Wunderground v.1.15,2013-01-29 08:30:00,
2013-01-29 03:35:00,44.8,42.9,30.23,WSW,238,0.0,0.0,93,0.00,,,0.00,Wunderground v.1.15,2013-01-29 08:35:00,
2013-01-29 03:40:00,45.0,43.1,30.23,WSW,238,0.0,0.0,93,0.00,,,0.00,Wunderground v.1.15,2013-01-29 08:40:00,
2013-01-29 03:45:00,45.0,43.1,30.23,WSW,238,0.0,0.0,93,0.00,,,0.00,Wunderground v.1.15,2013-01-29 08:45:00,
2013-01-29 03:55:00,45.1,43.5,30.23,WSW,238,0.0,0.0,94,0.00,,,0.00,Wunderground v.1.15,2013-01-29 08:55:00,
2013-01-29 04:00:00,45.1,43.5,30.22,WSW,238,0.0,0.0,94,0.00,,,0.00,Wunderground v.1.15,2013-01-29 09:00:00,
2013-01-29 04:05:00,45.1,43.5,30.22,WSW,238,0.0,0.0,94,0.00,,,0.00,Wunderground v.1.15,2013-01-29 09:05:00,
2013-01-29 04:15:00,45.1,43.5,30.22,WSW,238,0.0,0.0,94,0.00,,,0.00,Wunderground v.1.15,2013-01-29 09:15:00,
2013-01-29 04:20:00,45.1,43.5,30.22,WSW,238,0.0,0.0,94,0.00,,,0.00,Wunderground v.1.15,2013-01-29 09:20:00,
2013-01-29 04:30:00,45.1,43.5,30.23,WSW,238,0.0,0.0,94,0.00,,,0.00,Wunderground v.1.15,2013-01-29 09:30:00,
2013-01-29 04:35:00,45.1,43.5,30.22,WSW,238,0.0,0.0,94,0.00,,,0.00,Wunderground v.1.15,2013-01-29 09:35:00,
2013-01-29 04:40:00,45.1,43.5,30.22,WSW,238,0.0,0.0,94,0.00,,,0.00,Wunderground v.1.15,2013-01-29 09:40:00,
2013-01-29 04:45:00,45.1,43.5,30.23,WSW,238,0.0,0.0,94,0.00,,,0.00,Wunderground v.1.15,2013-01-29 09:45:00,
2013-01-29 04:50:00,45.0,43.1,30.22,WSW,238,0.0,0.0,93,0.00,,,0.00,Wunderground v.1.15,2013-01-29 09:50:00,
2013-01-29 05:00:00,44.9,43.0,30.22,WSW,238,0.0,0.0,93,0.00,,,0.00,Wunderground v.1.15,2013-01-29 10:00:00,
2013-01-29 05:05:00,44.7,42.8,30.22,WSW,238,0.0,0.0,93,0.00,,,0.00,Wunderground v.1.15,2013-01-29 10:05:00,
2013-01-29 05:15:00,44.6,43.0,30.23,WSW,238,0.0,0.0,94,0.00,,,0.00,Wunderground v.1.15,2013-01-29 10:15:00,
2013-01-29 05:20:00,44.6,43.0,30.23,WSW,238,0.0,0.0,94,0.00,,,0.00,Wunderground v.1.15,2013-01-29 10:20:00,
2013-01-29 05:25:00,44.5,42.9,30.22,WSW,238,0.0,0.0,94,0.00,,,0.00,Wunderground v.1.15,2013-01-29 10:25:00,
2013-01-29 05:30:00,44.5,42.9,30.22,WSW,238,0.0,0.0,94,0.00,,,0.00,Wunderground v.1.15,2013-01-29 10:30:00,
2013-01-29 05:40:00,44.4,42.5,30.22,WSW,238,0.0,0.0,93,0.00,,,0.00,Wunderground v.1.15,2013-01-29 10:40:00,
2013-01-29 05:45:00,44.5,42.9,30.22,WSW,238,0.0,0.0,94,0.00,,,0.00,Wunderground v.1.15,2013-01-29 10:45:00,
2013-01-29 05:50:00,44.5,42.9,30.22,WSW,238,0.0,0.0,94,0.00,,,0.00,Wunderground v.1.15,2013-01-29 10:50:00,
2013-01-29 05:55:00,44.7,43.1,30.22,WSW,238,0.0,0.0,94,0.00,,,0.00,Wunderground v.1.15,2013-01-29 10:55:00,
2013-01-29 06:00:00,44.9,43.3,30.22,WSW,238,0.0,0.0,94,0.00,,,0.00,Wunderground v.1.15,2013-01-29 11:00:00,
2013-01-29 06:05:00,45.3,44.0,30.22,WSW,238,0.0,0.0,95,0.00,,,0.00,Wunderground v.1.15,2013-01-29 11:05:00,
2013-01-29 06:15:00,45.3,43.7,30.22,WSW,238,0.0,0.0,94,0.00,,,0.00,Wunderground v.1.15,2013-01-29 11:15:00,
2013-01-29 06:20:00,45.4,43.8,30.22,WSW,238,0.0,0.0,94,0.00,,,0.00,Wunderground v.1.15,2013-01-29 11:20:00,
2013-01-29 06:25:00,45.5,43.9,30.22,WSW,238,0.0,0.0,94,0.00,,,0.00,Wunderground v.1.15,2013-01-29 11:25:00,
2013-01-29 06:30:00,45.6,44.0,30.22,WSW,238,0.0,0.0,94,0.00,,,0.00,Wunderground v.1.15,2013-01-29 11:30:00,
2013-01-29 06:35:00,45.6,44.3,30.22,WSW,238,0.0,0.0,95,0.00,,,0.00,Wunderground v.1.15,2013-01-29 11:35:00,
2013-01-29 06:45:00,45.7,44.4,30.22,WSW,238,0.0,0.0,95,0.00,,,0.00,Wunderground v.1.15,2013-01-29 11:45:00,
2013-01-29 06:50:00,45.7,44.4,30.22,WSW,238,0.0,0.0,95,0.00,,,0.00,Wunderground v.1.15,2013-01-29 11:50:00,
2013-01-29 06:55:00,45.8,44.4,30.22,WSW,238,0.0,0.0,95,0.00,,,0.00,Wunderground v.1.15,2013-01-29 11:55:00,
2013-01-29 07:00:00,46.0,44.6,30.23,WSW,238,0.0,0.0,95,0.00,,,0.00,Wunderground v.1.15,2013-01-29 12:00:00,
2013-01-29 07:05:00,46.1,44.7,30.23,WSW,238,0.0,0.0,95,0.00,,,0.00,Wunderground v.1.15,2013-01-29 12:05:00,
2013-01-29 07:15:00,46.4,45.0,30.23,WSW,238,0.0,0.0,95,0.00,,,0.00,Wunderground v.1.15,2013-01-29 12:15:00,
2013-01-29 07:20:00,46.4,45.0,30.22,WSW,238,0.0,0.0,95,0.00,,,0.00,Wunderground v.1.15,2013-01-29 12:20:00,
2013-01-29 07:25:00,46.5,45.1,30.23,WSW,238,0.0,0.0,95,0.00,,,0.00,Wunderground v.1.15,2013-01-29 12:25:00,
2013-01-29 07:30:00,46.6,45.2,30.22,WSW,238,0.0,0.0,95,0.00,,,0.00,Wunderground v.1.15,2013-01-29 12:30:00,
2013-01-29 07:35:00,46.8,45.4,30.22,WSW,238,0.0,0.0,95,0.00,,,0.00,Wunderground v.1.15,2013-01-29 12:35:00,
2013-01-29 07:40:00,47.0,45.6,30.23,WSW,238,0.0,0.0,95,0.00,,,0.00,Wunderground v.1.15,2013-01-29 12:40:00,
2013-01-29 07:50:00,47.3,45.9,30.23,WSW,238,0.0,0.0,95,0.00,,,0.00,Wunderground v.1.15,2013-01-29 12:50:00,
2013-01-29 07:55:00,47.4,46.0,30.23,WSW,238,0.0,0.0,95,0.00,,,0.00,Wunderground v.1.15,2013-01-29 12:55:00,
2013-01-29 08:00:00,47.6,46.2,30.23,WSW,238,0.0,0.0,95,0.00,,,0.00,Wunderground v.1.15,2013-01-29 13:00:00,
2013-01-29 08:05:00,47.8,46.4,30.23,WSW,238,0.0,0.0,95,0.00,,,0.00,Wunderground v.1.15,2013-01-29 13:05:00,
2013-01-29 08:15:00,48.3,46.9,30.23,WSW,238,0.0,0.0,95,0.00,,,0.00,Wunderground v.1.15,2013-01-29 13:15:00,
2013-01-29 08:20:00,48.6,47.5,30.23,WSW,238,0.0,0.0,96,0.00,,,0.00,Wunderground v.1.15,2013-01-29 13:20:00,
2013-01-29 08:25:00,49.0,47.9,30.23,WSW,238,0.0,0.0,96,0.00,,,0.00,Wunderground v.1.15,2013-01-29 13:25:00,
2013-01-29 08:30:00,49.2,48.1,30.23,WSW,238,0.0,0.0,96,0.00,,,0.00,Wunderground v.1.15,2013-01-29 13:30:00,
2013-01-29 08:35:00,49.5,48.4,30.23,WSW,238,0.0,0.0,96,0.00,,,0.00,Wunderground v.1.15,2013-01-29 13:35:00,
2013-01-29 08:40:00,49.8,48.7,30.23,WSW,238,0.0,0.0,96,0.00,,,0.00,Wunderground v.1.15,2013-01-29 13:40:00,
2013-01-29 08:45:00,50.2,49.1,30.23,WSW,238,0.0,0.0,96,0.00,,,0.00,Wunderground v.1.15,2013-01-29 13:45:00,
2013-01-29 08:55:00,51.3,50.2,30.23,WSW,238,0.0,0.0,96,0.00,,,0.00,Wunderground v.1.15,2013-01-29 13:55:00,
2013-01-29 09:00:00,52.0,50.9,30.23,WSW,238,0.0,0.0,96,0.00,,,0.00,Wunderground v.1.15,2013-01-29 14:00:00,
2013-01-29 09:05:00,51.9,50.8,30.23,WSW,238,0.0,0.0,96,0.00,,,0.00,Wunderground v.1.15,2013-01-29 14:05:00,
2013-01-29 09:15:00,52.4,51.6,30.23,WSW,238,0.0,0.0,97,0.00,,,0.00,Wunderground v.1.15,2013-01-29 14:15:00,
2013-01-29 09:20:00,52.6,51.8,30.23,WSW,238,0.0,0.0,97,0.00,,,0.00,Wunderground v.1.15,2013-01-29 14:20:00,
2013-01-29 09:30:00,52.8,52.0,30.22,WSW,238,0.0,0.0,97,0.00,,,0.00,Wunderground v.1.15,2013-01-29 14:30:00,
2013-01-29 09:35:00,53.1,52.3,30.23,WSW,238,0.0,0.0,97,0.00,,,0.00,Wunderground v.1.15,2013-01-29 14:35:00,
2013-01-29 09:40:00,53.4,52.6,30.23,WSW,238,0.0,0.0,97,0.00,,,0.00,Wunderground v.1.15,2013-01-29 14:40:00,
2013-01-29 09:45:00,53.9,53.1,30.23,WSW,238,0.0,0.0,97,0.00,,,0.00,Wunderground v.1.15,2013-01-29 14:45:00,
2013-01-29 09:50:00,54.6,53.8,30.22,WSW,238,0.0,0.0,97,0.00,,,0.00,Wunderground v.1.15,2013-01-29 14:50:00,
2013-01-29 10:00:00,55.8,54.7,30.22,WSW,238,0.0,0.0,96,0.00,,,0.00,Wunderground v.1.15,2013-01-29 15:00:00,
2013-01-29 10:05:00,57.2,55.5,30.22,WSW,238,0.0,0.0,94,0.00,,,0.00,Wunderground v.1.15,2013-01-29 15:05:00,
2013-01-29 10:15:00,57.7,54.8,30.22,WSW,238,0.0,0.0,90,0.00,,,0.00,Wunderground v.1.15,2013-01-29 15:15:00,
2013-01-29 10:20:00,58.3,55.4,30.22,WSW,238,0.0,0.0,90,0.00,,,0.00,Wunderground v.1.15,2013-01-29 15:20:00,
2013-01-29 10:25:00,58.8,55.6,30.22,WSW,238,0.0,0.0,89,0.00,,,0.00,Wunderground v.1.15,2013-01-29 15:25:00,
2013-01-29 10:35:00,59.9,56.0,30.22,WSW,238,1.0,1.0,87,0.00,,,0.00,Wunderground v.1.15,2013-01-29 15:35:00,
2013-01-29 10:40:00,60.6,56.4,30.22,WSW,238,0.0,0.0,86,0.00,,,0.00,Wunderground v.1.15,2013-01-29 15:40:00,
2013-01-29 10:45:00,61.7,57.1,30.22,WSW,238,1.0,3.0,85,0.00,,,0.00,Wunderground v.1.15,2013-01-29 15:45:00,
2013-01-29 10:50:00,62.0,57.1,30.22,WSW,238,1.0,1.0,84,0.00,,,0.00,Wunderground v.1.15,2013-01-29 15:50:00,
2013-01-29 10:55:00,62.3,56.7,30.22,WSW,238,1.0,1.0,82,0.00,,,0.00,Wunderground v.1.15,2013-01-29 15:55:00,
2013-01-29 11:05:00,63.0,57.1,30.21,SE,129,1.0,2.0,81,0.00,,,0.00,Wunderground v.1.15,2013-01-29 16:05:00,
2013-01-29 11:15:00,64.0,57.7,30.21,South,176,1.0,1.0,80,0.00,,,0.00,Wunderground v.1.15,2013-01-29 16:15:00,
2013-01-29 11:20:00,64.5,58.2,30.20,SSE,159,1.0,1.0,80,0.00,,,0.00,Wunderground v.1.15,2013-01-29 16:20:00,
2013-01-29 11:25:00,65.1,58.1,30.20,South,180,2.0,5.0,78,0.00,,,0.00,Wunderground v.1.15,2013-01-29 16:25:00,
2013-01-29 11:30:00,65.2,58.2,30.20,South,189,2.0,2.0,78,0.00,,,0.00,Wunderground v.1.15,2013-01-29 16:30:00,
2013-01-29 11:35:00,65.6,58.2,30.19,SSE,151,2.0,6.0,77,0.00,,,0.00,Wunderground v.1.15,2013-01-29 16:35:00,
2013-01-29 11:40:00,65.8,58.7,30.19,SSE,161,2.0,2.0,78,0.00,,,0.00,Wunderground v.1.15,2013-01-29 16:40:00,
2013-01-29 11:45:00,66.7,58.9,30.19,South,187,1.0,2.0,76,0.00,,,0.00,Wunderground v.1.15,2013-01-29 16:45:00,
2013-01-29 11:50:00,67.6,59.4,30.19,South,187,1.0,1.0,75,0.00,,,0.00,Wunderground v.1.15,2013-01-29 16:50:00,
2013-01-29 11:55:00,68.1,59.9,30.19,SSW,204,2.0,4.0,75,0.00,,,0.00,Wunderground v.1.15,2013-01-29 16:55:00,
2013-01-29 12:00:00,68.9,60.3,30.19,South,175,1.0,2.0,74,0.00,,,0.00,Wunderground v.1.15,2013-01-29 17:00:00,
2013-01-29 12:05:00,69.2,60.6,30.18,SW,234,1.0,2.0,74,0.00,,,0.00,Wunderground v.1.15,2013-01-29 17:05:00,
2013-01-29 12:15:00,68.8,60.2,30.18,South,189,3.0,8.0,74,0.00,,,0.00,Wunderground v.1.15,2013-01-29 17:15:00,
2013-01-29 12:20:00,69.0,60.7,30.17,South,175,4.0,8.0,75,0.00,,,0.00,Wunderground v.1.15,2013-01-29 17:20:00,
2013-01-29 12:25:00,69.1,60.8,30.17,South,181,4.0,8.0,75,0.00,,,0.00,Wunderground v.1.15,2013-01-29 17:25:00,
2013-01-29 12:30:00,70.0,60.9,30.17,South,176,3.0,3.0,73,0.00,,,0.00,Wunderground v.1.15,2013-01-29 17:30:00,
2013-01-29 12:40:00,70.1,60.7,30.16,SW,223,2.0,2.0,72,0.00,,,0.00,Wunderground v.1.15,2013-01-29 17:40:00,
2013-01-29 12:45:00,70.6,60.7,30.16,South,179,2.0,2.0,71,0.00,,,0.00,Wunderground v.1.15,2013-01-29 17:45:00,
2013-01-29 12:50:00,69.6,60.2,30.16,South,181,2.0,2.0,72,0.00,,,0.00,Wunderground v.1.15,2013-01-29 17:50:00,
2013-01-29 12:55:00,69.3,59.9,30.16,SSE,159,3.0,3.0,72,0.00,,,0.00,Wunderground v.1.15,2013-01-29 17:55:00,
2013-01-29 13:00:00,69.8,60.4,30.15,SSE,154,2.0,2.0,72,0.00,,,0.00,Wunderground v.1.15,2013-01-29 18:00:00,
2013-01-29 13:05:00,70.5,60.6,30.15,SSW,206,1.0,2.0,71,0.00,,,0.00,Wunderground v.1.15,2013-01-29 18:05:00,
2013-01-29 13:15:00,70.4,60.1,30.14,South,189,2.0,5.0,70,0.00,,,0.00,Wunderground v.1.15,2013-01-29 18:15:00,
2013-01-29 13:20:00,70.2,60.0,30.14,South,173,2.0,2.0,70,0.00,,,0.00,Wunderground v.1.15,2013-01-29 18:20:00,
2013-01-29 13:25:00,70.3,60.4,30.13,SSW,200,1.0,3.0,71,0.00,,,0.00,Wunderground v.1.15,2013-01-29 18:25:00,
2013-01-29 13:30:00,70.8,60.5,30.13,SSE,152,1.0,2.0,70,0.00,,,0.00,Wunderground v.1.15,2013-01-29 18:30:00,
2013-01-29 13:35:00,70.8,60.1,30.13,SE,145,1.0,2.0,69,0.00,,,0.00,Wunderground v.1.15,2013-01-29 18:35:00,
2013-01-29 13:40:00,71.0,60.7,30.13,SE,142,1.0,4.0,70,0.00,,,0.00,Wunderground v.1.15,2013-01-29 18:40:00,
2013-01-29 13:45:00,71.3,60.6,30.12,SE,142,1.0,4.0,69,0.00,,,0.00,Wunderground v.1.15,2013-01-29 18:45:00,
2013-01-29 13:55:00,71.7,61.0,30.11,South,172,2.0,2.0,69,0.00,,,0.00,Wunderground v.1.15,2013-01-29 18:55:00,
2013-01-29 14:00:00,72.6,61.4,30.11,South,169,1.0,1.0,68,0.00,,,0.00,Wunderground v.1.15,2013-01-29 19:00:00,
2013-01-29 14:05:00,73.5,61.4,30.11,South,169,1.0,1.0,66,0.00,,,0.00,Wunderground v.1.15,2013-01-29 19:05:00,
2013-01-29 14:15:00,75.0,61.5,30.10,SE,133,2.0,2.0,63,0.00,,,0.00,Wunderground v.1.15,2013-01-29 19:15:00,
2013-01-29 14:25:00,74.8,61.4,30.10,SSE,148,2.0,4.0,63,0.00,,,0.00,Wunderground v.1.15,2013-01-29 19:25:00,
2013-01-29 14:30:00,74.2,60.8,30.10,SSE,158,2.0,2.0,63,0.00,,,0.00,Wunderground v.1.15,2013-01-29 19:30:00,
2013-01-29 14:35:00,74.2,60.8,30.10,SSW,194,2.0,2.0,63,0.00,,,0.00,Wunderground v.1.15,2013-01-29 19:35:00,
2013-01-29 14:40:00,74.2,61.2,30.10,SW,216,1.0,1.0,64,0.00,,,0.00,Wunderground v.1.15,2013-01-29 19:40:00,
2013-01-29 14:45:00,75.2,61.3,30.09,SE,146,1.0,2.0,62,0.00,,,0.00,Wunderground v.1.15,2013-01-29 19:45:00,
2013-01-29 14:50:00,75.6,61.2,30.09,ESE,112,2.0,2.0,61,0.00,,,0.00,Wunderground v.1.15,2013-01-29 19:50:00,
2013-01-29 15:00:00,73.9,61.0,30.09,South,171,2.0,4.0,64,0.00,,,0.00,Wunderground v.1.15,2013-01-29 20:00:00,
2013-01-29 15:05:00,73.8,61.3,30.09,South,189,1.0,4.0,65,0.00,,,0.00,Wunderground v.1.15,2013-01-29 20:05:00,
2013-01-29 15:15:00,73.9,61.0,30.09,South,179,0.0,0.0,64,0.00,,,0.00,Wunderground v.1.15,2013-01-29 20:15:00,
2013-01-29 15:20:00,73.8,61.3,30.09,South,177,1.0,4.0,65,0.00,,,0.00,Wunderground v.1.15,2013-01-29 20:20:00,
2013-01-29 15:25:00,73.5,61.0,30.08,South,174,1.0,4.0,65,0.00,,,0.00,Wunderground v.1.15,2013-01-29 20:25:00,
2013-01-29 15:35:00,74.0,61.0,30.08,ESE,121,1.0,1.0,64,0.00,,,0.00,Wunderground v.1.15,2013-01-29 20:35:00,
2013-01-29 15:40:00,74.0,61.0,30.08,South,175,1.0,4.0,64,0.00,,,0.00,Wunderground v.1.15,2013-01-29 20:40:00,
2013-01-29 15:45:00,74.1,61.1,30.08,South,180,2.0,4.0,64,0.00,,,0.00,Wunderground v.1.15,2013-01-29 20:45:00,
2013-01-29 15:50:00,74.4,61.4,30.07,SSE,166,2.0,2.0,64,0.00,,,0.00,Wunderground v.1.15,2013-01-29 20:50:00,
2013-01-29 15:55:00,74.3,60.9,30.08,SE,133,2.0,4.0,63,0.00,,,0.00,Wunderground v.1.15,2013-01-29 20:55:00,
2013-01-29 16:05:00,74.1,61.1,30.08,SSW,211,2.0,6.0,64,0.00,,,0.00,Wunderground v.1.15,2013-01-29 21:05:00,
2013-01-29 16:15:00,74.6,61.2,30.07,South,169,1.0,2.0,63,0.00,,,0.00,Wunderground v.1.15,2013-01-29 21:15:00,
2013-01-29 16:20:00,74.2,60.8,30.07,SE,131,2.0,2.0,63,0.00,,,0.00,Wunderground v.1.15,2013-01-29 21:20:00,
2013-01-29 16:25:00,73.8,60.9,30.07,SSW,200,3.0,3.0,64,0.00,,,0.00,Wunderground v.1.15,2013-01-29 21:25:00,
2013-01-29 16:30:00,73.7,61.2,30.07,SE,142,2.0,2.0,65,0.00,,,0.00,Wunderground v.1.15,2013-01-29 21:30:00,
2013-01-29 16:35:00,73.7,60.8,30.07,South,173,1.0,2.0,64,0.00,,,0.00,Wunderground v.1.15,2013-01-29 21:35:00,
2013-01-29 16:40:00,74.0,61.0,30.06,SE,133,2.0,2.0,64,0.00,,,0.00,Wunderground v.1.15,2013-01-29 21:40:00,
2013-01-29 16:45:00,74.2,61.2,30.06,South,171,2.0,2.0,64,0.00,,,0.00,Wunderground v.1.15,2013-01-29 21:45:00,
2013-01-29 16:50:00,73.9,61.0,30.06,SW,225,2.0,2.0,64,0.00,,,0.00,Wunderground v.1.15,2013-01-29 21:50:00,
2013-01-29 16:55:00,73.7,60.8,30.06,South,181,2.0,2.0,64,0.00,,,0.00,Wunderground v.1.15,2013-01-29 21:55:00,
2013-01-29 17:00:00,73.5,60.6,30.06,SSE,152,1.0,1.0,64,0.00,,,0.00,Wunderground v.1.15,2013-01-29 22:00:00,
2013-01-29 17:05:00,73.2,60.7,30.06,SSE,158,1.0,1.0,65,0.00,,,0.00,Wunderground v.1.15,2013-01-29 22:05:00,
2013-01-29 17:15:00,73.1,60.6,30.07,South,171,1.0,1.0,65,0.00,,,0.00,Wunderground v.1.15,2013-01-29 22:15:00,
2013-01-29 17:20:00,73.0,61.0,30.07,SSE,164,1.0,2.0,66,0.00,,,0.00,Wunderground v.1.15,2013-01-29 22:20:00,
2013-01-29 17:25:00,72.7,60.7,30.07,SSE,165,1.0,2.0,66,0.00,,,0.00,Wunderground v.1.15,2013-01-29 22:25:00,
2013-01-29 17:30:00,72.5,60.5,30.06,SSE,164,1.0,1.0,66,0.00,,,0.00,Wunderground v.1.15,2013-01-29 22:30:00,
2013-01-29 17:35:00,72.1,60.5,30.06,SSE,164,1.0,1.0,67,0.00,,,0.00,Wunderground v.1.15,2013-01-29 22:35:00,
2013-01-29 17:45:00,71.7,60.6,30.06,SSE,164,0.0,0.0,68,0.00,,,0.00,Wunderground v.1.15,2013-01-29 22:45:00,
2013-01-29 17:50:00,71.5,60.4,30.06,SSE,164,0.0,1.0,68,0.00,,,0.00,Wunderground v.1.15,2013-01-29 22:50:00,
2013-01-29 17:55:00,71.3,60.6,30.06,SSE,164,0.0,1.0,69,0.00,,,0.00,Wunderground v.1.15,2013-01-29 22:55:00,
2013-01-29 18:00:00,71.1,60.4,30.06,SSE,164,0.0,0.0,69,0.00,,,0.00,Wunderground v.1.15,2013-01-29 23:00:00,
2013-01-29 18:05:00,70.6,60.3,30.05,SSE,164,0.0,0.0,70,0.00,,,0.00,Wunderground v.1.15,2013-01-29 23:05:00,
2013-01-29 18:15:00,70.7,60.4,30.06,SSE,164,1.0,1.0,70,0.00,,,0.00,Wunderground v.1.15,2013-01-29 23:15:00,
2013-01-29 18:20:00,70.7,60.0,30.06,SSE,164,0.0,0.0,69,0.00,,,0.00,Wunderground v.1.15,2013-01-29 23:20:00,
2013-01-29 18:25:00,70.4,60.1,30.06,SSE,164,0.0,0.0,70,0.00,,,0.00,Wunderground v.1.15,2013-01-29 23:25:00,
2013-01-29 18:30:00,70.3,60.1,30.06,SSE,164,0.0,0.0,70,0.00,,,0.00,Wunderground v.1.15,2013-01-29 23:30:00,
2013-01-29 18:35:00,70.2,60.4,30.05,SSE,164,0.0,0.0,71,0.00,,,0.00,Wunderground v.1.15,2013-01-29 23:35:00,
2013-01-29 18:40:00,70.0,60.2,30.05,SSE,164,0.0,0.0,71,0.00,,,0.00,Wunderground v.1.15,2013-01-29 23:40:00,
2013-01-29 18:45:00,69.7,60.3,30.05,SSE,164,0.0,0.0,72,0.00,,,0.00,Wunderground v.1.15,2013-01-29 23:45:00,
2013-01-29 18:55:00,69.2,59.8,30.06,SSE,164,0.0,0.0,72,0.00,,,0.00,Wunderground v.1.15,2013-01-29 23:55:00,
2013-01-29 19:00:00,69.0,60.0,30.06,SSE,164,0.0,0.0,73,0.00,,,0.00,Wunderground v.1.15,2013-01-30 00:00:00,
2013-01-29 19:05:00,68.8,59.8,30.05,SSE,164,0.0,0.0,73,0.00,,,0.00,Wunderground v.1.15,2013-01-30 00:05:00,
2013-01-29 19:15:00,68.7,60.1,30.05,SSE,164,0.0,0.0,74,0.00,,,0.00,Wunderground v.1.15,2013-01-30 00:15:00,
2013-01-29 19:20:00,68.7,60.1,30.05,SSE,164,0.0,0.0,74,0.00,,,0.00,Wunderground v.1.15,2013-01-30 00:20:00,
2013-01-29 19:30:00,68.9,60.3,30.05,SSE,164,0.0,0.0,74,0.00,,,0.00,Wunderground v.1.15,2013-01-30 00:30:00,
2013-01-29 19:35:00,68.9,60.3,30.05,SSE,164,0.0,0.0,74,0.00,,,0.00,Wunderground v.1.15,2013-01-30 00:35:00,
2013-01-29 19:45:00,68.8,60.2,30.05,SSE,164,0.0,0.0,74,0.00,,,0.00,Wunderground v.1.15,2013-01-30 00:45:00,
2013-01-29 19:50:00,68.8,60.2,30.05,SSE,164,1.0,1.0,74,0.00,,,0.00,Wunderground v.1.15,2013-01-30 00:50:00,
2013-01-29 19:55:00,68.8,60.2,30.04,SE,129,1.0,1.0,74,0.00,,,0.00,Wunderground v.1.15,2013-01-30 00:55:00,
2013-01-29 20:00:00,68.8,60.2,30.04,SE,137,2.0,2.0,74,0.00,,,0.00,Wunderground v.1.15,2013-01-30 01:00:00,
2013-01-29 20:05:00,68.8,60.2,30.04,SE,133,1.0,2.0,74,0.00,,,0.00,Wunderground v.1.15,2013-01-30 01:05:00,
2013-01-29 20:15:00,68.6,60.4,30.05,SE,142,1.0,2.0,75,0.00,,,0.00,Wunderground v.1.15,2013-01-30 01:15:00,
2013-01-29 20:20:00,68.5,60.3,30.05,SE,127,2.0,4.0,75,0.00,,,0.00,Wunderground v.1.15,2013-01-30 01:20:00,
2013-01-29 20:25:00,68.5,60.6,30.05,SE,125,2.0,5.0,76,0.00,,,0.00,Wunderground v.1.15,2013-01-30 01:25:00,
2013-01-29 20:35:00,68.4,60.5,30.05,SSE,158,2.0,2.0,76,0.00,,,0.00,Wunderground v.1.15,2013-01-30 01:35:00,
2013-01-29 20:40:00,68.4,60.9,30.04,SE,137,2.0,2.0,77,0.00,,,0.00,Wunderground v.1.15,2013-01-30 01:40:00,
2013-01-29 20:45:00,68.2,60.7,30.04,SE,126,1.0,7.0,77,0.00,,,0.00,Wunderground v.1.15,2013-01-30 01:45:00,
2013-01-29 20:50:00,68.2,61.1,30.04,East,89,2.0,6.0,78,0.00,,,0.00,Wunderground v.1.15,2013-01-30 01:50:00,
2013-01-29 20:55:00,68.1,61.0,30.04,SSE,148,2.0,6.0,78,0.00,,,0.00,Wunderground v.1.15,2013-01-30 01:55:00,
2013-01-29 21:05:00,68.0,61.2,30.04,SSE,162,2.0,2.0,79,0.00,,,0.00,Wunderground v.1.15,2013-01-30 02:05:00,
2013-01-29 21:15:00,67.9,61.5,30.05,SE,145,3.0,3.0,80,0.00,,,0.00,Wunderground v.1.15,2013-01-30 02:15:00,
2013-01-29 21:20:00,67.8,61.4,30.05,South,180,1.0,1.0,80,0.00,,,0.00,Wunderground v.1.15,2013-01-30 02:20:00,
2013-01-29 21:25:00,67.7,61.7,30.05,ESE,115,1.0,1.0,81,0.00,,,0.00,Wunderground v.1.15,2013-01-30 02:25:00,
2013-01-29 21:30:00,67.6,61.6,30.05,South,169,2.0,2.0,81,0.00,,,0.00,Wunderground v.1.15,2013-01-30 02:30:00,
2013-01-29 21:35:00,67.5,61.8,30.05,SSE,148,2.0,2.0,82,0.00,,,0.00,Wunderground v.1.15,2013-01-30 02:35:00,
2013-01-29 21:40:00,67.4,61.7,30.06,SE,126,2.0,5.0,82,0.00,,,0.00,Wunderground v.1.15,2013-01-30 02:40:00,
2013-01-29 21:45:00,67.3,62.0,30.05,SSW,204,2.0,5.0,83,0.00,,,0.00,Wunderground v.1.15,2013-01-30 02:45:00,
2013-01-29 21:50:00,67.2,61.9,30.05,South,176,3.0,3.0,83,0.00,,,0.00,Wunderground v.1.15,2013-01-30 02:50:00,
2013-01-29 21:55:00,67.1,61.8,30.05,SSE,148,2.0,4.0,83,0.00,,,0.00,Wunderground v.1.15,2013-01-30 02:55:00,
2013-01-29 22:00:00,67.1,61.8,30.05,SE,144,2.0,2.0,83,0.00,,,0.00,Wunderground v.1.15,2013-01-30 03:00:00,
2013-01-29 22:05:00,66.9,61.9,30.05,South,176,2.0,4.0,84,0.00,,,0.00,Wunderground v.1.15,2013-01-30 03:05:00,
2013-01-29 22:15:00,66.7,61.7,30.04,SSE,159,2.0,2.0,84,0.00,,,0.00,Wunderground v.1.15,2013-01-30 03:15:00,
2013-01-29 22:20:00,66.6,61.6,30.04,South,174,2.0,2.0,84,0.00,,,0.00,Wunderground v.1.15,2013-01-30 03:20:00,
2013-01-29 22:25:00,66.5,61.5,30.04,SSE,168,3.0,3.0,84,0.00,,,0.00,Wunderground v.1.15,2013-01-30 03:25:00,
2013-01-29 22:30:00,66.4,61.8,30.04,SSE,152,3.0,3.0,85,0.00,,,0.00,Wunderground v.1.15,2013-01-30 03:30:00,
2013-01-29 22:35:00,66.3,61.7,30.04,SSE,152,3.0,3.0,85,0.00,,,0.00,Wunderground v.1.15,2013-01-30 03:35:00,
2013-01-29 22:45:00,66.1,61.5,30.04,SSE,160,3.0,3.0,85,0.00,,,0.00,Wunderground v.1.15,2013-01-30 03:45:00,
2013-01-29 22:50:00,66.0,61.4,30.04,SE,137,3.0,3.0,85,0.00,,,0.00,Wunderground v.1.15,2013-01-30 03:50:00,
2013-01-29 22:55:00,65.9,61.6,30.04,South,179,3.0,7.0,86,0.00,,,0.00,Wunderground v.1.15,2013-01-30 03:55:00,
2013-01-29 23:00:00,65.9,61.6,30.03,SSE,152,3.0,3.0,86,0.00,,,0.00,Wunderground v.1.15,2013-01-30 04:00:00,
2013-01-29 23:05:00,65.8,61.5,30.03,SE,128,3.0,3.0,86,0.00,,,0.00,Wunderground v.1.15,2013-01-30 04:05:00,
2013-01-29 23:15:00,65.6,61.6,30.04,SSW,194,3.0,3.0,87,0.00,,,0.00,Wunderground v.1.15,2013-01-30 04:15:00,
2013-01-29 23:20:00,65.6,61.3,30.04,South,173,3.0,3.0,86,0.00,,,0.00,Wunderground v.1.15,2013-01-30 04:20:00,
2013-01-29 23:25:00,65.4,61.4,30.04,SSE,164,3.0,3.0,87,0.00,,,0.00,Wunderground v.1.15,2013-01-30 04:25:00,
2013-01-29 23:30:00,65.3,61.3,30.04,South,190,3.0,3.0,87,0.00,,,0.00,Wunderground v.1.15,2013-01-30 04:30:00,
2013-01-29 23:35:00,65.2,61.2,30.04,SSE,161,3.0,3.0,87,0.00,,,0.00,Wunderground v.1.15,2013-01-30 04:35:00,
2013-01-29 23:40:00,65.1,61.1,30.04,SSW,202,3.0,3.0,87,0.00,,,0.00,Wunderground v.1.15,2013-01-30 04:40:00,
2013-01-29 23:45:00,65.0,61.0,30.04,SSE,158,2.0,3.0,87,0.00,,,0.00,Wunderground v.1.15,2013-01-30 04:45:00,
2013-01-29 23:55:00,64.9,61.3,30.03,South,179,3.0,4.0,88,0.00,,,0.00,Wunderground v.1.15,2013-01-30 04:55:00,